When you browse on this site, cookies collect data to enhance your experience and personalize the content and advertising you see.
Visit our Privacy Policy to learn more. By continuing to use the site, you agree to this use of cookies and data.
  • în România
  • Lista ţărilor
  • Pe 7 zile
  • Temperatura apei
  • Hartă satelitară
  • Meteo pe hartă
  • Widget-uri
  • user-avatar
    Intrare

    Meteo pe oră la Buzău

    Astăzi, 22 Aprilie, Luni

    Timp Temperatura Precipitaţii Vânt Presiune Umiditate
    00:00 +9°C° 0.5 mm 2 m/s 758 mmHg 72%
    01:00 +9°C° 0.5 mm 1 m/s 758 mmHg 75%
    02:00 +8°C° 0 mm 2 m/s 758 mmHg 75%
    03:00 +7°C° 0.9 mm 2 m/s 758 mmHg 78%
    04:00 +7°C° 0.9 mm 2 m/s 758 mmHg 82%
    05:00 +7°C° 0.9 mm 2 m/s 758 mmHg 85%
    06:00 +7°C° 0.4 mm 2 m/s 758 mmHg 82%
    07:00 +7°C° 0.4 mm 2 m/s 758 mmHg 79%
    08:00 +7°C° 0 mm 3 m/s 758 mmHg 76%
    09:00 +8°C° 0.2 mm 3 m/s 758 mmHg 69%
    10:00 +9°C° 0.2 mm 3 m/s 758 mmHg 63%
    11:00 +10°C° 0.2 mm 3 m/s 758 mmHg 56%
    12:00 +11°C° 0 mm 3 m/s 758 mmHg 51%
    13:00 +13°C° 0 mm 3 m/s 758 mmHg 46%
    14:00 +14°C° 0 mm 3 m/s 758 mmHg 41%
    15:00 +14°C° 0 mm 3 m/s 758 mmHg 40%
    16:00 +14°C° 0 mm 4 m/s 758 mmHg 40%
    17:00 +14°C° 0 mm 4 m/s 758 mmHg 40%
    18:00 +13°C° 0 mm 4 m/s 759 mmHg 43%
    19:00 +12°C° 0 mm 4 m/s 759 mmHg 45%
    20:00 +10°C° 0 mm 4 m/s 759 mmHg 48%
    21:00 +10°C° 0 mm 3 m/s 760 mmHg 49%
    22:00 +9°C° 0 mm 2 m/s 760 mmHg 51%
    23:00 +9°C° 0 mm 1 m/s 761 mmHg 52%

    Mâine, 23 Aprilie, Marţi

    Timp Temperatura Precipitaţii Vânt Presiune Umiditate
    00:00 +8°C° 0 mm 1 m/s 761 mmHg 53%
    01:00 +8°C° 0 mm 1 m/s 761 mmHg 54%
    02:00 +7°C° 0 mm 1 m/s 761 mmHg 55%
    03:00 +6°C° 0 mm 2 m/s 761 mmHg 57%
    04:00 +6°C° 0 mm 2 m/s 761 mmHg 58%
    05:00 +5°C° 0 mm 2 m/s 761 mmHg 59%
    06:00 +7°C° 0 mm 2 m/s 761 mmHg 57%
    07:00 +8°C° 0 mm 3 m/s 761 mmHg 56%
    08:00 +10°C° 0 mm 3 m/s 761 mmHg 54%
    09:00 +11°C° 0 mm 3 m/s 761 mmHg 51%
    10:00 +12°C° 0 mm 4 m/s 761 mmHg 49%
    11:00 +13°C° 0 mm 4 m/s 761 mmHg 46%
    12:00 +14°C° 0 mm 4 m/s 761 mmHg 45%
    13:00 +14°C° 0 mm 4 m/s 761 mmHg 44%
    14:00 +15°C° 0 mm 4 m/s 761 mmHg 44%
    15:00 +15°C° 0 mm 5 m/s 761 mmHg 45%
    16:00 +15°C° 0 mm 5 m/s 760 mmHg 46%
    17:00 +14°C° 0 mm 5 m/s 760 mmHg 48%
    18:00 +13°C° 0 mm 4 m/s 760 mmHg 51%
    19:00 +12°C° 0 mm 4 m/s 760 mmHg 55%
    20:00 +11°C° 0 mm 3 m/s 761 mmHg 58%
    21:00 +11°C° 0 mm 3 m/s 761 mmHg 60%
    22:00 +10°C° 0 mm 2 m/s 761 mmHg 62%
    23:00 +10°C° 0 mm 2 m/s 761 mmHg 64%

    Poimâine, 24 Aprilie, Miercuri

    Timp Temperatura Precipitaţii Vânt Presiune Umiditate
    00:00 +10°C° 0 mm 2 m/s 761 mmHg 64%
    01:00 +9°C° 0 mm 2 m/s 761 mmHg 64%
    02:00 +9°C° 0 mm 2 m/s 761 mmHg 65%
    03:00 +9°C° 0 mm 2 m/s 761 mmHg 67%
    04:00 +8°C° 0 mm 2 m/s 761 mmHg 69%
    05:00 +8°C° 0 mm 2 m/s 761 mmHg 71%
    06:00 +8°C° 0.1 mm 2 m/s 761 mmHg 72%
    07:00 +9°C° 0.1 mm 3 m/s 761 mmHg 73%
    08:00 +9°C° 0.1 mm 3 m/s 762 mmHg 74%
    09:00 +11°C° 0 mm 3 m/s 762 mmHg 68%
    10:00 +12°C° 0 mm 4 m/s 762 mmHg 63%
    11:00 +13°C° 0 mm 4 m/s 762 mmHg 57%
    12:00 +14°C° 0 mm 4 m/s 762 mmHg 54%
    13:00 +15°C° 0 mm 4 m/s 762 mmHg 51%
    14:00 +17°C° 0 mm 4 m/s 761 mmHg 49%
    15:00 +17°C° 0 mm 4 m/s 761 mmHg 50%
    16:00 +17°C° 0 mm 4 m/s 761 mmHg 51%
    17:00 +17°C° 0 mm 4 m/s 761 mmHg 52%
    18:00 +14°C° 0 mm 3 m/s 761 mmHg 58%
    19:00 +13°C° 0 mm 3 m/s 761 mmHg 64%
    20:00 +12°C° 0 mm 2 m/s 762 mmHg 70%
    21:00 +10°C° 0 mm 2 m/s 762 mmHg 74%
    22:00 +9°C° 0 mm 2 m/s 762 mmHg 78%
    23:00 +9°C° 0 mm 1 m/s 762 mmHg 83%

    25 Aprilie, Joi

    Timp Temperatura Precipitaţii Vânt Presiune Umiditate
    00:00 +9°C° 0 mm 1 m/s 762 mmHg 84%
    01:00 +9°C° 0 mm 1 m/s 762 mmHg 86%
    02:00 +8°C° 0 mm 1 m/s 762 mmHg 87%
    03:00 +8°C° 0 mm 1 m/s 762 mmHg 88%
    04:00 +8°C° 0 mm 1 m/s 762 mmHg 88%
    05:00 +8°C° 0 mm 1 m/s 762 mmHg 89%
    06:00 +8°C° 0 mm 2 m/s 762 mmHg 83%
    07:00 +10°C° 0 mm 2 m/s 762 mmHg 77%
    08:00 +12°C° 0 mm 2 m/s 762 mmHg 71%
    09:00 +14°C° 0 mm 2 m/s 762 mmHg 65%
    10:00 +14°C° 0 mm 3 m/s 762 mmHg 59%
    11:00 +17°C° 0 mm 3 m/s 762 mmHg 54%
    12:00 +18°C° 0 mm 3 m/s 761 mmHg 52%
    13:00 +19°C° 0 mm 3 m/s 761 mmHg 49%
    14:00 +20°C° 0 mm 3 m/s 761 mmHg 47%
    15:00 +20°C° 0 mm 3 m/s 760 mmHg 48%
    16:00 +20°C° 0 mm 3 m/s 760 mmHg 49%
    17:00 +20°C° 0 mm 4 m/s 760 mmHg 50%
    18:00 +18°C° 0 mm 4 m/s 760 mmHg 57%
    19:00 +16°C° 0 mm 3 m/s 760 mmHg 64%
    20:00 +13°C° 0 mm 3 m/s 760 mmHg 70%
    21:00 +12°C° 0 mm 3 m/s 760 mmHg 74%
    22:00 +12°C° 0 mm 2 m/s 760 mmHg 77%
    23:00 +11°C° 0 mm 1 m/s 760 mmHg 81%

    26 Aprilie, Vineri

    Timp Temperatura Precipitaţii Vânt Presiune Umiditate
    00:00 +10°C° 0 mm 1 m/s 760 mmHg 82%
    01:00 +10°C° 0 mm 1 m/s 760 mmHg 84%
    02:00 +10°C° 0 mm 1 m/s 760 mmHg 85%
    03:00 +9°C° 0 mm 1 m/s 759 mmHg 86%
    04:00 +9°C° 0 mm 1 m/s 759 mmHg 87%
    05:00 +9°C° 0 mm 1 m/s 759 mmHg 87%
    06:00 +10°C° 0 mm 1 m/s 759 mmHg 80%
    07:00 +12°C° 0 mm 1 m/s 759 mmHg 73%
    08:00 +13°C° 0 mm 1 m/s 759 mmHg 66%
    09:00 +15°C° 0 mm 2 m/s 759 mmHg 60%
    10:00 +16°C° 0 mm 3 m/s 759 mmHg 53%
    11:00 +18°C° 0 mm 3 m/s 759 mmHg 46%
    12:00 +19°C° 0 mm 3 m/s 758 mmHg 44%
    13:00 +20°C° 0 mm 3 m/s 758 mmHg 42%
    14:00 +21°C° 0 mm 3 m/s 758 mmHg 40%
    15:00 +21°C° 0 mm 4 m/s 757 mmHg 42%
    16:00 +21°C° 0 mm 4 m/s 757 mmHg 43%
    17:00 +21°C° 0 mm 4 m/s 757 mmHg 45%
    18:00 +19°C° 0 mm 3 m/s 757 mmHg 52%
    19:00 +17°C° 0 mm 3 m/s 757 mmHg 59%
    20:00 +14°C° 0 mm 3 m/s 757 mmHg 66%
    21:00 +14°C° 0 mm 2 m/s 757 mmHg 69%
    22:00 +13°C° 0 mm 2 m/s 757 mmHg 72%
    23:00 +12°C° 0 mm 2 m/s 757 mmHg 75%

    27 Aprilie, Sâmbătă

    Timp Temperatura Precipitaţii Vânt Presiune Umiditate
    00:00 +12°C° 0 mm 1 m/s 757 mmHg 77%
    01:00 +11°C° 0 mm 1 m/s 756 mmHg 78%
    02:00 +11°C° 0 mm 1 m/s 756 mmHg 79%
    03:00 +11°C° 0 mm 1 m/s 756 mmHg 79%
    04:00 +10°C° 0 mm 1 m/s 756 mmHg 79%
    05:00 +10°C° 0 mm 1 m/s 756 mmHg 78%
    06:00 +12°C° 0 mm 1 m/s 756 mmHg 74%
    07:00 +13°C° 0 mm 1 m/s 756 mmHg 69%
    08:00 +14°C° 0 mm 1 m/s 756 mmHg 64%
    09:00 +16°C° 0 mm 2 m/s 755 mmHg 60%
    10:00 +18°C° 0 mm 3 m/s 755 mmHg 55%
    11:00 +19°C° 0 mm 3 m/s 755 mmHg 51%
    12:00 +20°C° 0 mm 4 m/s 755 mmHg 48%
    13:00 +21°C° 0 mm 4 m/s 754 mmHg 45%
    14:00 +22°C° 0 mm 4 m/s 754 mmHg 42%
    15:00 +22°C° 0 mm 4 m/s 754 mmHg 44%
    16:00 +22°C° 0 mm 4 m/s 753 mmHg 46%
    17:00 +21°C° 0 mm 4 m/s 753 mmHg 47%
    18:00 +19°C° 0 mm 4 m/s 753 mmHg 53%
    19:00 +17°C° 0 mm 3 m/s 754 mmHg 60%
    20:00 +15°C° 0 mm 2 m/s 754 mmHg 66%
    21:00 +14°C° 0 mm 2 m/s 754 mmHg 69%
    22:00 +13°C° 0 mm 2 m/s 754 mmHg 72%
    23:00 +12°C° 0 mm 1 m/s 754 mmHg 75%
    Arată mai mult